STARLINK-31812, 59800

Orbit data source: Space-Track

STARLINK-31812, 59800 is a payload satellite owned by SpaceX/Seattle (US) in LEO that was launched on Sat, 18 May 2024 UTC via an FALCON 9 launch vehicle from the Air Force Eastern Test Range (AFETR). Payload-class satellites include a variety of spacecraft equipped with specific instruments for various scientific and technological missions. These include communications satellites like Starlink; space stations such as the ISS; scientific satellites like the Hubble; Earth observation satellites from companies like Planet Labs, Umbra, and HawkEye 360; GPS; miniature CubeSats for education and research; and military/defense satellites.

Loading next visibility...
Identifier
59800, 2024-093U
Orbit
LEO
Country
Flag of USUS
Related business
Manufacturer
SpaceX/Seattle
Mission
Operational Commercial Communications
Bus & Motor
STARLINK V2M, Unknown motor
Mass
730 kg wet, ~700 kg dry
Launch date (UTC)
2024-05-18 (2 years ago)
Launch vehicle
FALCON 9
Launch site
Air Force Eastern Test Range (AFETR)
Object type
Payload
Rocket body
Debris
Shape & HBR
Box + 2 Pan, 17.7 m
Radar Cross Section
33.884 m², Large (>1 m²)

Expand to show TLE details & history
Last TLE update: 2 days ago

TLE from 2 days ago
0 STARLINK-31812
1 59800U 24093U   26171.47233848  .00000276  00000-0  19549-4 0  9993
2 59800  43.0012 348.5211 0000712 249.8049 110.2726 15.27575953118484
Epoch: 2026-06-20T11:20Z
TLE epoch observation values (Epoch: 2026-06-20T11:20:10.044Z)
Latitude
-0.00003°
Longitude
-90.20726°
Altitude
483.006 km
Speed
7.626 km/s
True Right ascension
23h 14m 05s
True Declination
0° 00' 00"
Sunlit
Object was in daylight at epoch
Visualization orbit readout
Latitude
Unknown
Longitude
Unknown
Altitude
Unknown
Speed
Unknown
Apparent Right ascension
Unknown
Apparent Declination
Unknown
Sunlit
N/A
Visualization observer readout
Local Sidereal Time
00:50:47
Azimuth
Unknown
Elevation
Unknown
Doppler factor
Unknown
Orbital elements
Apogee altitude
485.495 km
Perigee altitude
484.518 km
Semi-major axis
6,863.143 km
Eccentricity
0.00007
Inclination
43.0012°
RAAN
348.5211°
Arg. of periapsis
249.8049°
True anomaly
110.28025°
Mean anomaly
110.2726°
Eccentric anomaly
110.27643°
Mean motion
3.81732 °/min
Orbital period
94.31 mins
BSTAR
0.000019549
Loading maneuver chart data...
Computing Atmospheric mass density...
Loading historical data...
Loading historical data...
Loading historical data...
Loading historical data...
Loading historical data...
Loading historical data...
Loading historical data...

Documentation

Showing up to 5 results
|